Mount Shasta, CA

1:17 AM PDT on May 29, 2017 (GMT -0700)
Mount Shasta

Weather History for KMHS - February, 2012

Change the Weather History Date:

Sunday, February 19, 2012

  Actual Average Record
Temperature  
Mean Temperature 35 °F 39 °F  
Max Temperature 49 °F 49 °F 67 °F (1995)
Min Temperature 20 °F 28 °F 7 °F (1990)
Degree Days  
Heating Degree Days 30 26  
Month to date heating degree days 486 519  
Since 1 July heating degree days 3477 3745  
Cooling Degree Days 0 0  
Month to date cooling degree days 0 0  
Year to date cooling degree days 0 0  
Moisture  
Dew Point 16 °F    
Average Humidity 53    
Maximum Humidity 81    
Minimum Humidity 21    
Precipitation  
Precipitation T in 0.28 in 2.38 in (1956)
Month to date precipitation 0.93 4.78  
Year to date precipitation 6.30 11.84  
Sea Level Pressure  
Sea Level Pressure 30.14 in    
Wind  
Wind Speed 1 mph (East)    
Max Wind Speed 7 mph    
Max Gust Speed 14 mph    
Visibility 10 miles    
Events      
T = Trace of Precipitation, MM = Missing Value Source: NWS Daily Summary

Daily Weather History Graph

Daily Weather History Graph

Search for Another Location

Airport or City:

Trip Planner

Search our weather history database for the weather conditions in past years. The results will help you decide how hot, cold, wet, or windy it might be!

Date:

Astronomy

Feb. 19, 2012 Rise Set
Actual Time 6:59 AM PST 5:47 PM PST
Civil Twilight 6:31 AM PST 6:15 PM PST
Nautical Twilight 5:58 AM PST 6:48 PM PST
Astronomical Twilight 5:26 AM PST 7:20 PM PST
Moon 5:24 AM PST (2/19) 3:54 PM PST (2/19)
Length of Visible Light 11h 44m
Length of Day
10h 48m
Waning Crescent, 5% of the Moon is Illuminated
Feb 19
Waning Crescent
Feb 21
New
Feb 29
First Quarter
Mar 8
Full
Mar 14
Last Quarter

Hourly Weather History & Observations

Time (PST) Temp. Windchill Dew Point Humidity Pressure Visibility Wind Dir Wind Speed Gust Speed Precip Events Conditions
12:56 AM 27.0 °F - 21.0 °F 78% 30.22 in 10.0 mi Calm Calm - N/A   Clear
1:56 AM 27.0 °F 23.0 °F 19.9 °F 75% 30.21 in 10.0 mi Variable 3.5 mph - N/A   Clear
2:56 AM 27.0 °F - 19.9 °F 75% 30.20 in 10.0 mi Calm Calm - N/A   Clear
3:56 AM 26.1 °F - 19.0 °F 75% 30.20 in 10.0 mi Calm Calm - N/A   Clear
4:56 AM 24.1 °F - 18.0 °F 77% 30.20 in 10.0 mi Calm Calm - N/A   Clear
5:56 AM 21.0 °F 16.2 °F 15.1 °F 78% 30.21 in 10.0 mi ENE 3.5 mph - N/A   Clear
6:00 AM - - - N/A% - - North - - N/A   Unknown
6:56 AM 19.9 °F - 14.0 °F 78% 30.21 in 10.0 mi Calm Calm - N/A   Clear
7:00 AM - - - N/A% - - North - - N/A   Unknown
7:56 AM 21.9 °F - 14.0 °F 72% 30.21 in 9.0 mi Calm Calm - N/A   Clear
8:56 AM 30.0 °F - 19.0 °F 64% 30.19 in 10.0 mi Calm Calm - N/A   Clear
9:56 AM 34.0 °F - 14.0 °F 44% 30.17 in 10.0 mi Calm Calm - N/A   Clear
10:56 AM 39.0 °F - 16.0 °F 39% 30.14 in 10.0 mi Calm Calm - N/A   Clear
11:56 AM 43.0 °F - 7.0 °F 23% 30.11 in 10.0 mi Calm Calm - N/A   Clear
12:56 PM 46.0 °F - 10.0 °F 23% 30.07 in 10.0 mi Calm Calm - N/A   Clear
1:56 PM 48.0 °F - 10.9 °F 22% 30.04 in 10.0 mi Calm Calm - N/A   Clear
2:56 PM 46.9 °F - 12.0 °F 24% 30.04 in 10.0 mi Calm Calm - N/A   Clear
6:56 PM 39.0 °F - 14.0 °F 36% 30.09 in 10.0 mi Calm Calm - N/A   Clear
7:56 PM 37.9 °F - 12.9 °F 36% 30.08 in 10.0 mi Calm Calm - N/A   Clear
8:56 PM 39.0 °F 35.7 °F 12.0 °F 33% 30.08 in 10.0 mi Variable 4.6 mph - N/A   Mostly Cloudy
9:56 PM 37.9 °F 34.4 °F 18.0 °F 45% 30.08 in 10.0 mi SE 4.6 mph - 0.00 in   Overcast
10:56 PM 36.0 °F 33.3 °F 21.9 °F 57% 30.08 in 10.0 mi Variable 3.5 mph - 0.00 in   Overcast
11:56 PM 36.0 °F - 21.0 °F 55% 30.08 in 10.0 mi Calm Calm - N/A   Overcast